Location: *
(57.8420°S, 159.8600°W)
Time: 04:12:37
(UTC+00:00)

Cosmos 1302 Rocket - Pass Details

Date: 18 May 2021
Orbit: 757 x 775 km, 74.0° (Epoch: 23 June)

Event Time Altitude Azimuth Distance (km) Brightness Sun altitude
Rises 03:44:44 0° 321° (NW) 3,227 8.4 -10.0°
Reaches altitude 10° 03:47:07 10° 318° (NW) 2,308 7.6 -10.2°
Maximum altitude 03:52:20 65° 235° (SW) 852 4.4 -10.9°
Drops below altitude 10° 03:57:37 10° 153° (SSE) 2,334 6.1 -11.6°
Enters shadow 03:58:24 - 151° (SSE) 2,634 6.3 -11.7°
